SL-14 DEB, 45274

Orbit data source: Space-Track

SL-14 DEB, 45274 is space debris in LEO originally from a launch on Thu, 15 Aug 1991 UTC launched from the Plesetsk Missile And Space Complex (PKMTR). Debris objects in space refer to the collection of defunct objects orbiting the Earth. Examples of debris include non-operational satellites, rocket bodies, and fragments generated from explosions, collisions, or faulty payload assembly.

Loading next visibility...
Identifier
45274, 1991-056L
Orbit
LEO
Country
Flag of CISCIS
Related business
Manufacturer
Unknown
Mission
Spacecraft
Bus & Motor
Unknown
Mass
Unknown
Launch date (UTC)
1991-08-15 (34 years ago)
Launch vehicle
Unknown
Launch site
Plesetsk Missile And Space Complex (PKMTR)
Object type
Payload
Rocket body
Debris
Shape & HBR
Unknown
Radar Cross Section
Medium (>0.1 m² and <1 m²)

Expand to show TLE details & history
Last TLE update: 22 hours ago

TLE from 22 hours ago
0 SL-14 DEB
1 45274U 91056L   25260.57638586  .00000168  00000-0  40012-3 0  9991
2 45274  82.5405 328.3269 0030310 110.7107 249.7269 13.17598438268829
Epoch: 2025-09-17T13:49Z
TLE epoch observation values (Epoch: 2025-09-17T13:49:59.738Z)
Latitude
-0.00001°
Longitude
124.07764°
Altitude
1,204.73 km
Speed
7.248 km/s
True Right ascension
21h 53m 18s
True Declination
0° 00' 00"
Sunlit
Object was in full shadow at epoch
Visualization orbit readout
Latitude
Unknown
Longitude
Unknown
Altitude
Unknown
Speed
Unknown
Apparent Right ascension
Unknown
Apparent Declination
Unknown
Sunlit
N/A
Visualization observer readout
Local Sidereal Time
04:34:58
Azimuth
Unknown
Elevation
Unknown
Doppler factor
Unknown
Orbital elements
Apogee altitude
1,214.094 km
Perigee altitude
1,168.209 km
Semi-major axis
7,569.288 km
Eccentricity
0.00303
Inclination
82.5405°
RAAN
328.3269°
Arg. of periapsis
110.7107°
True anomaly
249.40152°
Mean anomaly
249.7269°
Eccentric anomaly
249.56417°
Mean motion
3.2958 °/min
Orbital period
109.23 mins
BSTAR
0.00040012
Loading maneuver chart data...
Computing Atmospheric mass density...
Loading historical data...
Loading historical data...
Loading historical data...
Loading historical data...
Loading historical data...
Loading historical data...
Loading historical data...

Documentation

Showing up to 5 results
|